owner,sensor,date,latitude,longitude,relative_humidity,qcFlag 
DISL,ioos:station:DISL:MBLA:1,2019-01-01T06:55:00Z,30.4367,-88.0117,99.9,1111122 
DISL,ioos:station:DISL:MBLA:1,2019-01-01T07:55:00Z,30.4367,-88.0117,99.9,1111122 
DISL,ioos:station:DISL:MBLA:1,2019-01-01T08:55:00Z,30.4367,-88.0117,99.9,1111122 
DISL,ioos:station:DISL:MBLA:1,2019-01-01T09:55:00Z,30.4367,-88.0117,99.9,1111122 
DISL,ioos:station:DISL:MBLA:1,2019-01-01T10:55:00Z,30.4367,-88.0117,99.9,1111122 
DISL,ioos:station:DISL:MBLA:1,2019-01-01T11:55:00Z,30.4367,-88.0117,99.9,1111122 
DISL,ioos:station:DISL:MBLA:1,2019-01-01T12:55:00Z,30.4367,-88.0117,99.9,1111122 
DISL,ioos:station:DISL:MBLA:1,2019-01-01T13:55:00Z,30.4367,-88.0117,99.9,1111122 
DISL,ioos:station:DISL:MBLA:1,2019-01-01T14:55:00Z,30.4367,-88.0117,99.9,1111122 
DISL,ioos:station:DISL:MBLA:1,2019-01-01T15:55:00Z,30.4367,-88.0117,100.0,1111122 
DISL,ioos:station:DISL:MBLA:1,2019-01-01T16:55:00Z,30.4367,-88.0117,99.9,1111122 
DISL,ioos:station:DISL:MBLA:1,2019-01-01T17:55:00Z,30.4367,-88.0117,99.9,1111122 
DISL,ioos:station:DISL:MBLA:1,2019-01-01T18:55:00Z,30.4367,-88.0117,99.9,1111122 
DISL,ioos:station:DISL:MBLA:1,2019-01-01T19:55:00Z,30.4367,-88.0117,100.0,1111122 
DISL,ioos:station:DISL:MBLA:1,2019-01-01T20:55:00Z,30.4367,-88.0117,99.9,1111122 
DISL,ioos:station:DISL:MBLA:1,2019-01-01T21:55:00Z,30.4367,-88.0117,99.9,1111122 
DISL,ioos:station:DISL:MBLA:1,2019-01-01T22:55:00Z,30.4367,-88.0117,99.9,1111122 
DISL,ioos:station:DISL:MBLA:1,2019-01-01T23:55:00Z,30.4367,-88.0117,99.9,1111122 
DISL,ioos:station:DISL:MBLA:1,2019-01-02T00:55:00Z,30.4367,-88.0117,99.9,1111122 
DISL,ioos:station:DISL:MBLA:1,2019-01-02T01:55:00Z,30.4367,-88.0117,99.9,1111122 
DISL,ioos:station:DISL:MBLA:1,2019-01-02T02:55:00Z,30.4367,-88.0117,100.0,1111122 
DISL,ioos:station:DISL:MBLA:1,2019-01-02T03:55:00Z,30.4367,-88.0117,99.9,1111122 
DISL,ioos:station:DISL:MBLA:1,2019-01-02T04:55:00Z,30.4367,-88.0117,100.0,1111122 
DISL,ioos:station:DISL:MBLA:1,2019-01-02T05:55:00Z,30.4367,-88.0117,99.9,1111122 
DISL,ioos:station:DISL:MBLA:1,2019-01-02T06:55:00Z,30.4367,-88.0117,99.9,1111122 
DISL,ioos:station:DISL:MBLA:1,2019-01-02T07:55:00Z,30.4367,-88.0117,100.0,1111122 
DISL,ioos:station:DISL:MBLA:1,2019-01-02T08:55:00Z,30.4367,-88.0117,100.0,1111122 
DISL,ioos:station:DISL:MBLA:1,2019-01-02T09:55:00Z,30.4367,-88.0117,100.0,1111122 
DISL,ioos:station:DISL:MBLA:1,2019-01-02T10:55:00Z,30.4367,-88.0117,100.0,1111122 
DISL,ioos:station:DISL:MBLA:1,2019-01-02T11:55:00Z,30.4367,-88.0117,100.0,1111122 
DISL,ioos:station:DISL:MBLA:1,2019-01-02T12:55:00Z,30.4367,-88.0117,99.9,1111122 
DISL,ioos:station:DISL:MBLA:1,2019-01-02T13:55:00Z,30.4367,-88.0117,99.9,1111122 
DISL,ioos:station:DISL:MBLA:1,2019-01-02T14:55:00Z,30.4367,-88.0117,100.0,1111122 
DISL,ioos:station:DISL:MBLA:1,2019-01-02T15:55:00Z,30.4367,-88.0117,99.9,1111122 
DISL,ioos:station:DISL:MBLA:1,2019-01-02T16:55:00Z,30.4367,-88.0117,100.0,1111122 
DISL,ioos:station:DISL:MBLA:1,2019-01-02T17:55:00Z,30.4367,-88.0117,99.9,1111122 
DISL,ioos:station:DISL:MBLA:1,2019-01-02T18:55:00Z,30.4367,-88.0117,99.9,1111122 
DISL,ioos:station:DISL:MBLA:1,2019-01-02T19:55:00Z,30.4367,-88.0117,99.9,1111122 
DISL,ioos:station:DISL:MBLA:1,2019-01-02T20:55:00Z,30.4367,-88.0117,100.0,1111122 
DISL,ioos:station:DISL:MBLA:1,2019-01-02T21:55:00Z,30.4367,-88.0117,99.9,1111122 
DISL,ioos:station:DISL:MBLA:1,2019-01-02T22:55:00Z,30.4367,-88.0117,100.0,1111122 
DISL,ioos:station:DISL:MBLA:1,2019-01-02T23:55:00Z,30.4367,-88.0117,99.9,1111122 
DISL,ioos:station:DISL:MBLA:1,2019-01-03T00:55:00Z,30.4367,-88.0117,99.9,1111122 
DISL,ioos:station:DISL:MBLA:1,2019-01-03T01:55:00Z,30.4367,-88.0117,100.0,1111122 
DISL,ioos:station:DISL:MBLA:1,2019-01-03T02:55:00Z,30.4367,-88.0117,99.9,1111122 
DISL,ioos:station:DISL:MBLA:1,2019-01-03T03:55:00Z,30.4367,-88.0117,99.9,1111122 
DISL,ioos:station:DISL:MBLA:1,2019-01-03T04:55:00Z,30.4367,-88.0117,99.9,1111122 
DISL,ioos:station:DISL:MBLA:1,2019-01-03T05:55:00Z,30.4367,-88.0117,99.9,1111122 
DISL,ioos:station:DISL:MBLA:1,2019-01-03T06:55:00Z,30.4367,-88.0117,100.0,1111122 
DISL,ioos:station:DISL:MBLA:1,2019-01-03T07:55:00Z,30.4367,-88.0117,99.9,1111122 
DISL,ioos:station:DISL:MBLA:1,2019-01-03T08:55:00Z,30.4367,-88.0117,100.0,1111122 
DISL,ioos:station:DISL:MBLA:1,2019-01-03T09:55:00Z,30.4367,-88.0117,100.0,1111122 
DISL,ioos:station:DISL:MBLA:1,2019-01-03T10:55:00Z,30.4367,-88.0117,100.0,1111122 
DISL,ioos:station:DISL:MBLA:1,2019-01-03T11:55:00Z,30.4367,-88.0117,99.9,1111122 
DISL,ioos:station:DISL:MBLA:1,2019-01-03T12:55:00Z,30.4367,-88.0117,99.9,1111122 
DISL,ioos:station:DISL:MBLA:1,2019-01-03T13:55:00Z,30.4367,-88.0117,99.9,1111122 
DISL,ioos:station:DISL:MBLA:1,2019-01-03T14:55:00Z,30.4367,-88.0117,99.9,1111122 
DISL,ioos:station:DISL:MBLA:1,2019-01-03T15:55:00Z,30.4367,-88.0117,99.9,1111122 
DISL,ioos:station:DISL:MBLA:1,2019-01-03T16:55:00Z,30.4367,-88.0117,99.9,1111122 
DISL,ioos:station:DISL:MBLA:1,2019-01-03T17:55:00Z,30.4367,-88.0117,100.0,1111122 
DISL,ioos:station:DISL:MBLA:1,2019-01-03T18:55:00Z,30.4367,-88.0117,100.0,1111122 
DISL,ioos:station:DISL:MBLA:1,2019-01-03T19:55:00Z,30.4367,-88.0117,99.9,1111122 
DISL,ioos:station:DISL:MBLA:1,2019-01-03T20:55:00Z,30.4367,-88.0117,99.9,1111122 
DISL,ioos:station:DISL:MBLA:1,2019-01-03T21:55:00Z,30.4367,-88.0117,100.0,1111122 
DISL,ioos:station:DISL:MBLA:1,2019-01-03T22:55:00Z,30.4367,-88.0117,100.0,1111122 
DISL,ioos:station:DISL:MBLA:1,2019-01-03T23:55:00Z,30.4367,-88.0117,99.9,1111122 
DISL,ioos:station:DISL:MBLA:1,2019-01-04T00:55:00Z,30.4367,-88.0117,100.0,1111122 
DISL,ioos:station:DISL:MBLA:1,2019-01-04T01:55:00Z,30.4367,-88.0117,99.9,1111122 
DISL,ioos:station:DISL:MBLA:1,2019-01-04T02:55:00Z,30.4367,-88.0117,99.9,1111122 
DISL,ioos:station:DISL:MBLA:1,2019-01-04T03:55:00Z,30.4367,-88.0117,100.0,1111122 
DISL,ioos:station:DISL:MBLA:1,2019-01-04T04:55:00Z,30.4367,-88.0117,99.9,1111122 
DISL,ioos:station:DISL:MBLA:1,2019-01-04T05:56:00Z,30.4367,-88.0117,100.0,1111122 
DISL,ioos:station:DISL:MBLA:1,2019-01-04T06:55:00Z,30.4367,-88.0117,99.9,1111122 
DISL,ioos:station:DISL:MBLA:1,2019-01-04T07:55:00Z,30.4367,-88.0117,99.9,1111122 
DISL,ioos:station:DISL:MBLA:1,2019-01-04T08:55:00Z,30.4367,-88.0117,100.0,1111122 
DISL,ioos:station:DISL:MBLA:1,2019-01-04T09:55:00Z,30.4367,-88.0117,100.0,1111122 
DISL,ioos:station:DISL:MBLA:1,2019-01-04T10:55:00Z,30.4367,-88.0117,93.8,1111122 
DISL,ioos:station:DISL:MBLA:1,2019-01-04T11:55:00Z,30.4367,-88.0117,88.4,1111122 
DISL,ioos:station:DISL:MBLA:1,2019-01-04T12:56:00Z,30.4367,-88.0117,89.2,1111122 
DISL,ioos:station:DISL:MBLA:1,2019-01-04T13:56:00Z,30.4367,-88.0117,87.6,1111122 
DISL,ioos:station:DISL:MBLA:1,2019-01-04T14:55:00Z,30.4367,-88.0117,82.4,1111122 
DISL,ioos:station:DISL:MBLA:1,2019-01-04T15:55:00Z,30.4367,-88.0117,63.74,1111122 
DISL,ioos:station:DISL:MBLA:1,2019-01-04T16:55:00Z,30.4367,-88.0117,51.82,1111122 
DISL,ioos:station:DISL:MBLA:1,2019-01-04T17:55:00Z,30.4367,-88.0117,62.51,1111122 
DISL,ioos:station:DISL:MBLA:1,2019-01-04T18:56:00Z,30.4367,-88.0117,53.51,1111122 
DISL,ioos:station:DISL:MBLA:1,2019-01-04T19:55:00Z,30.4367,-88.0117,53.27,1111122 
DISL,ioos:station:DISL:MBLA:1,2019-01-04T20:56:00Z,30.4367,-88.0117,52.28,1111122 
DISL,ioos:station:DISL:MBLA:1,2019-01-04T21:56:00Z,30.4367,-88.0117,53.5,1111122 
DISL,ioos:station:DISL:MBLA:1,2019-01-04T22:56:00Z,30.4367,-88.0117,66.67,1111122 
DISL,ioos:station:DISL:MBLA:1,2019-01-04T23:55:00Z,30.4367,-88.0117,62.72,1111122 
DISL,ioos:station:DISL:MBLA:1,2019-01-05T00:56:00Z,30.4367,-88.0117,62.31,1111122 
DISL,ioos:station:DISL:MBLA:1,2019-01-05T01:56:00Z,30.4367,-88.0117,67.33,1111122 
DISL,ioos:station:DISL:MBLA:1,2019-01-05T02:56:00Z,30.4367,-88.0117,72.91,1111122 
DISL,ioos:station:DISL:MBLA:1,2019-01-05T03:55:00Z,30.4367,-88.0117,77.88,1111122 
DISL,ioos:station:DISL:MBLA:1,2019-01-05T04:56:00Z,30.4367,-88.0117,76.59,1111122 
DISL,ioos:station:DISL:MBLA:1,2019-01-05T05:56:00Z,30.4367,-88.0117,76.39,1111122 
DISL,ioos:station:DISL:MBLA:1,2019-01-05T06:56:00Z,30.4367,-88.0117,74.66,1111122 
DISL,ioos:station:DISL:MBLA:1,2019-01-05T07:56:00Z,30.4367,-88.0117,77.48,1111122 
DISL,ioos:station:DISL:MBLA:1,2019-01-05T08:56:00Z,30.4367,-88.0117,74.36,1111122 
DISL,ioos:station:DISL:MBLA:1,2019-01-05T09:56:00Z,30.4367,-88.0117,74.63,1111122 
DISL,ioos:station:DISL:MBLA:1,2019-01-05T10:56:00Z,30.4367,-88.0117,74.43,1111122 
DISL,ioos:station:DISL:MBLA:1,2019-01-05T11:56:00Z,30.4367,-88.0117,79.97,1111122 
DISL,ioos:station:DISL:MBLA:1,2019-01-05T12:56:00Z,30.4367,-88.0117,77.28,1111122 
DISL,ioos:station:DISL:MBLA:1,2019-01-05T13:56:00Z,30.4367,-88.0117,72.46,1111122 
DISL,ioos:station:DISL:MBLA:1,2019-01-05T14:56:00Z,30.4367,-88.0117,70.81,1111122 
DISL,ioos:station:DISL:MBLA:1,2019-01-05T15:56:00Z,30.4367,-88.0117,61.97,1111122 
DISL,ioos:station:DISL:MBLA:1,2019-01-05T16:56:00Z,30.4367,-88.0117,57.15,1111122 
DISL,ioos:station:DISL:MBLA:1,2019-01-05T17:56:00Z,30.4367,-88.0117,55.81,1111122 
DISL,ioos:station:DISL:MBLA:1,2019-01-05T18:56:00Z,30.4367,-88.0117,52.77,1111122 
DISL,ioos:station:DISL:MBLA:1,2019-01-05T19:56:00Z,30.4367,-88.0117,47.07,1111122 
DISL,ioos:station:DISL:MBLA:1,2019-01-05T20:56:00Z,30.4367,-88.0117,61.49,1111122 
DISL,ioos:station:DISL:MBLA:1,2019-01-05T21:56:00Z,30.4367,-88.0117,65.73,1111122 
DISL,ioos:station:DISL:MBLA:1,2019-01-05T22:56:00Z,30.4367,-88.0117,69.89,1111122 
DISL,ioos:station:DISL:MBLA:1,2019-01-05T23:56:00Z,30.4367,-88.0117,77.98,1111122 
DISL,ioos:station:DISL:MBLA:1,2019-01-06T00:56:00Z,30.4367,-88.0117,77.72,1111122 
DISL,ioos:station:DISL:MBLA:1,2019-01-06T01:56:00Z,30.4367,-88.0117,79.69,1111122 
DISL,ioos:station:DISL:MBLA:1,2019-01-06T16:56:00Z,30.4367,-88.0117,63.02,1111122 
DISL,ioos:station:DISL:MBLA:1,2019-01-06T17:56:00Z,30.4367,-88.0117,60.23,1111122 
DISL,ioos:station:DISL:MBLA:1,2019-01-06T18:56:00Z,30.4367,-88.0117,56.83,1111122 
DISL,ioos:station:DISL:MBLA:1,2019-01-06T19:56:00Z,30.4367,-88.0117,60.82,1111122 
DISL,ioos:station:DISL:MBLA:1,2019-01-06T20:56:00Z,30.4367,-88.0117,55.09,1111122 
DISL,ioos:station:DISL:MBLA:1,2019-01-06T21:56:00Z,30.4367,-88.0117,59.74,1111122 
DISL,ioos:station:DISL:MBLA:1,2019-01-06T22:56:00Z,30.4367,-88.0117,74.48,1111122 
DISL,ioos:station:DISL:MBLA:1,2019-01-06T23:56:00Z,30.4367,-88.0117,84.4,1111122 
DISL,ioos:station:DISL:MBLA:1,2019-01-07T00:56:00Z,30.4367,-88.0117,83.9,1111122 
DISL,ioos:station:DISL:MBLA:1,2019-01-07T01:56:00Z,30.4367,-88.0117,83.0,1111122 
DISL,ioos:station:DISL:MBLA:1,2019-01-07T02:56:00Z,30.4367,-88.0117,82.8,1111122 
DISL,ioos:station:DISL:MBLA:1,2019-01-07T03:56:00Z,30.4367,-88.0117,88.0,1111122 
DISL,ioos:station:DISL:MBLA:1,2019-01-07T04:58:00Z,30.4367,-88.0117,93.7,1111122 
DISL,ioos:station:DISL:MBLA:1,2019-01-07T05:56:00Z,30.4367,-88.0117,100.0,1111122 
DISL,ioos:station:DISL:MBLA:1,2019-01-07T06:26:00Z,30.4367,-88.0117,97.7,1111122 
DISL,ioos:station:DISL:MBLA:1,2019-01-07T15:56:00Z,30.4367,-88.0117,72.13,1111122 
DISL,ioos:station:DISL:MBLA:1,2019-01-07T16:56:00Z,30.4367,-88.0117,77.97,1111122 
DISL,ioos:station:DISL:MBLA:1,2019-01-07T17:56:00Z,30.4367,-88.0117,90.3,1111122 
DISL,ioos:station:DISL:MBLA:1,2019-01-07T18:56:00Z,30.4367,-88.0117,91.8,1111122 
DISL,ioos:station:DISL:MBLA:1,2019-01-07T19:56:00Z,30.4367,-88.0117,90.8,1111122 
DISL,ioos:station:DISL:MBLA:1,2019-01-07T20:56:00Z,30.4367,-88.0117,89.1,1111122 
DISL,ioos:station:DISL:MBLA:1,2019-01-07T21:56:00Z,30.4367,-88.0117,89.7,1111122 
DISL,ioos:station:DISL:MBLA:1,2019-01-07T22:56:00Z,30.4367,-88.0117,91.8,1111122 
DISL,ioos:station:DISL:MBLA:1,2019-01-07T23:56:00Z,30.4367,-88.0117,95.1,1111122 
DISL,ioos:station:DISL:MBLA:1,2019-01-08T00:56:00Z,30.4367,-88.0117,94.9,1111122 
DISL,ioos:station:DISL:MBLA:1,2019-01-08T01:56:00Z,30.4367,-88.0117,98.2,1111122 
DISL,ioos:station:DISL:MBLA:1,2019-01-08T02:56:00Z,30.4367,-88.0117,99.1,1111122 
DISL,ioos:station:DISL:MBLA:1,2019-01-08T03:56:00Z,30.4367,-88.0117,99.3,1111122 
DISL,ioos:station:DISL:MBLA:1,2019-01-08T04:56:00Z,30.4367,-88.0117,99.3,1111122 
DISL,ioos:station:DISL:MBLA:1,2019-01-08T05:56:00Z,30.4367,-88.0117,99.9,1111122 
DISL,ioos:station:DISL:MBLA:1,2019-01-08T06:56:00Z,30.4367,-88.0117,100.0,1111122 
DISL,ioos:station:DISL:MBLA:1,2019-01-08T07:56:00Z,30.4367,-88.0117,100.0,1111122 
DISL,ioos:station:DISL:MBLA:1,2019-01-08T08:56:00Z,30.4367,-88.0117,100.0,1111122 
DISL,ioos:station:DISL:MBLA:1,2019-01-08T09:56:00Z,30.4367,-88.0117,100.0,1111122 
DISL,ioos:station:DISL:MBLA:1,2019-01-08T10:56:00Z,30.4367,-88.0117,100.0,1111122 
DISL,ioos:station:DISL:MBLA:1,2019-01-08T11:56:00Z,30.4367,-88.0117,100.0,1111122 
DISL,ioos:station:DISL:MBLA:1,2019-01-08T12:56:00Z,30.4367,-88.0117,100.0,1111122 
DISL,ioos:station:DISL:MBLA:1,2019-01-08T13:56:00Z,30.4367,-88.0117,100.0,1111122 
DISL,ioos:station:DISL:MBLA:1,2019-01-08T14:56:00Z,30.4367,-88.0117,91.9,1111122 
DISL,ioos:station:DISL:MBLA:1,2019-01-08T15:56:00Z,30.4367,-88.0117,99.0,1111122 
DISL,ioos:station:DISL:MBLA:1,2019-01-08T16:56:00Z,30.4367,-88.0117,89.8,1111122 
DISL,ioos:station:DISL:MBLA:1,2019-01-08T17:56:00Z,30.4367,-88.0117,84.5,1111122 
DISL,ioos:station:DISL:MBLA:1,2019-01-08T18:56:00Z,30.4367,-88.0117,83.0,1111122 
DISL,ioos:station:DISL:MBLA:1,2019-01-08T19:56:00Z,30.4367,-88.0117,82.5,1111122 
DISL,ioos:station:DISL:MBLA:1,2019-01-08T20:56:00Z,30.4367,-88.0117,84.9,1111122 
DISL,ioos:station:DISL:MBLA:1,2019-01-08T21:56:00Z,30.4367,-88.0117,87.9,1111122 
DISL,ioos:station:DISL:MBLA:1,2019-01-08T22:56:00Z,30.4367,-88.0117,91.4,1111122 
DISL,ioos:station:DISL:MBLA:1,2019-01-08T23:56:00Z,30.4367,-88.0117,96.6,1111122 
DISL,ioos:station:DISL:MBLA:1,2019-01-09T00:56:00Z,30.4367,-88.0117,99.6,1111122 
DISL,ioos:station:DISL:MBLA:1,2019-01-09T01:56:00Z,30.4367,-88.0117,99.9,1111122 
DISL,ioos:station:DISL:MBLA:1,2019-01-09T02:56:00Z,30.4367,-88.0117,100.0,1111122 
DISL,ioos:station:DISL:MBLA:1,2019-01-09T03:56:00Z,30.4367,-88.0117,100.0,1111122 
DISL,ioos:station:DISL:MBLA:1,2019-01-09T04:56:00Z,30.4367,-88.0117,100.0,1111122 
DISL,ioos:station:DISL:MBLA:1,2019-01-09T05:56:00Z,30.4367,-88.0117,96.3,1111122 
DISL,ioos:station:DISL:MBLA:1,2019-01-09T06:56:00Z,30.4367,-88.0117,84.7,1111122 
DISL,ioos:station:DISL:MBLA:1,2019-01-09T07:56:00Z,30.4367,-88.0117,72.24,1111122 
DISL,ioos:station:DISL:MBLA:1,2019-01-09T08:56:00Z,30.4367,-88.0117,69.51,1111122 
DISL,ioos:station:DISL:MBLA:1,2019-01-09T09:56:00Z,30.4367,-88.0117,61.63,1111122 
DISL,ioos:station:DISL:MBLA:1,2019-01-09T10:56:00Z,30.4367,-88.0117,60.82,1111122 
DISL,ioos:station:DISL:MBLA:1,2019-01-09T11:56:00Z,30.4367,-88.0117,58.44,1111122 
DISL,ioos:station:DISL:MBLA:1,2019-01-09T12:56:00Z,30.4367,-88.0117,56.21,1111122 
DISL,ioos:station:DISL:MBLA:1,2019-01-09T13:55:00Z,30.4367,-88.0117,54.92,1111122 
DISL,ioos:station:DISL:MBLA:1,2019-01-09T14:55:00Z,30.4367,-88.0117,52.34,1111122 
DISL,ioos:station:DISL:MBLA:1,2019-01-09T17:55:00Z,30.4367,-88.0117,40.86,1111122 
DISL,ioos:station:DISL:MBLA:1,2019-01-09T18:55:00Z,30.4367,-88.0117,37.52,1111122 
DISL,ioos:station:DISL:MBLA:1,2019-01-09T19:55:00Z,30.4367,-88.0117,30.84,1111122 
DISL,ioos:station:DISL:MBLA:1,2019-01-09T20:55:00Z,30.4367,-88.0117,28.09,1111122 
DISL,ioos:station:DISL:MBLA:1,2019-01-09T21:55:00Z,30.4367,-88.0117,29.24,1111122 
DISL,ioos:station:DISL:MBLA:1,2019-01-09T22:55:00Z,30.4367,-88.0117,34.06,1111122 
DISL,ioos:station:DISL:MBLA:1,2019-01-09T23:55:00Z,30.4367,-88.0117,37.81,1111122 
DISL,ioos:station:DISL:MBLA:1,2019-01-10T00:55:00Z,30.4367,-88.0117,34.41,1111122 
DISL,ioos:station:DISL:MBLA:1,2019-01-10T01:55:00Z,30.4367,-88.0117,41.41,1111122 
DISL,ioos:station:DISL:MBLA:1,2019-01-10T02:55:00Z,30.4367,-88.0117,44.13,1111122 
DISL,ioos:station:DISL:MBLA:1,2019-01-10T03:55:00Z,30.4367,-88.0117,44.98,1111122 
DISL,ioos:station:DISL:MBLA:1,2019-01-10T04:55:00Z,30.4367,-88.0117,49.98,1111122 
DISL,ioos:station:DISL:MBLA:1,2019-01-10T05:55:00Z,30.4367,-88.0117,48.93,1111122 
DISL,ioos:station:DISL:MBLA:1,2019-01-10T06:55:00Z,30.4367,-88.0117,54.94,1111122 
DISL,ioos:station:DISL:MBLA:1,2019-01-10T07:55:00Z,30.4367,-88.0117,53.17,1111122 
DISL,ioos:station:DISL:MBLA:1,2019-01-10T08:55:00Z,30.4367,-88.0117,56.03,1111122 
DISL,ioos:station:DISL:MBLA:1,2019-01-10T09:55:00Z,30.4367,-88.0117,58.55,1111122 
DISL,ioos:station:DISL:MBLA:1,2019-01-10T10:55:00Z,30.4367,-88.0117,59.77,1111122 
DISL,ioos:station:DISL:MBLA:1,2019-01-10T11:55:00Z,30.4367,-88.0117,59.23,1111122 
DISL,ioos:station:DISL:MBLA:1,2019-01-10T12:55:00Z,30.4367,-88.0117,45.11,1111122 
DISL,ioos:station:DISL:MBLA:1,2019-01-10T13:55:00Z,30.4367,-88.0117,45.37,1111122 
DISL,ioos:station:DISL:MBLA:1,2019-01-10T14:55:00Z,30.4367,-88.0117,44.93,1111122 
DISL,ioos:station:DISL:MBLA:1,2019-01-10T15:55:00Z,30.4367,-88.0117,41.6,1111122 
DISL,ioos:station:DISL:MBLA:1,2019-01-10T16:55:00Z,30.4367,-88.0117,37.79,1111122 
DISL,ioos:station:DISL:MBLA:1,2019-01-10T17:55:00Z,30.4367,-88.0117,36.59,1111122 
DISL,ioos:station:DISL:MBLA:1,2019-01-10T18:55:00Z,30.4367,-88.0117,37.47,1111122 
DISL,ioos:station:DISL:MBLA:1,2019-01-10T19:55:00Z,30.4367,-88.0117,38.58,1111122 
DISL,ioos:station:DISL:MBLA:1,2019-01-10T20:55:00Z,30.4367,-88.0117,31.35,1111122 
DISL,ioos:station:DISL:MBLA:1,2019-01-10T21:55:00Z,30.4367,-88.0117,39.42,1111122 
DISL,ioos:station:DISL:MBLA:1,2019-01-10T22:55:00Z,30.4367,-88.0117,44.89,1111122 
DISL,ioos:station:DISL:MBLA:1,2019-01-10T23:55:00Z,30.4367,-88.0117,44.05,1111122 
DISL,ioos:station:DISL:MBLA:1,2019-01-11T00:55:00Z,30.4367,-88.0117,45.89,1111122 
DISL,ioos:station:DISL:MBLA:1,2019-01-11T01:55:00Z,30.4367,-88.0117,42.57,1111122 
DISL,ioos:station:DISL:MBLA:1,2019-01-11T02:55:00Z,30.4367,-88.0117,45.8,1111122 
DISL,ioos:station:DISL:MBLA:1,2019-01-11T03:55:00Z,30.4367,-88.0117,43.08,1111122 
DISL,ioos:station:DISL:MBLA:1,2019-01-11T04:55:00Z,30.4367,-88.0117,45.98,1111122 
DISL,ioos:station:DISL:MBLA:1,2019-01-11T05:55:00Z,30.4367,-88.0117,48.35,1111122 
DISL,ioos:station:DISL:MBLA:1,2019-01-11T06:55:00Z,30.4367,-88.0117,46.59,1111122 
DISL,ioos:station:DISL:MBLA:1,2019-01-11T07:55:00Z,30.4367,-88.0117,49.38,1111122 
DISL,ioos:station:DISL:MBLA:1,2019-01-11T08:55:00Z,30.4367,-88.0117,46.26,1111122 
DISL,ioos:station:DISL:MBLA:1,2019-01-11T09:55:00Z,30.4367,-88.0117,54.1,1111122 
DISL,ioos:station:DISL:MBLA:1,2019-01-11T10:55:00Z,30.4367,-88.0117,56.28,1111122 
DISL,ioos:station:DISL:MBLA:1,2019-01-11T11:55:00Z,30.4367,-88.0117,56.79,1111122 
DISL,ioos:station:DISL:MBLA:1,2019-01-11T12:55:00Z,30.4367,-88.0117,59.95,1111122 
DISL,ioos:station:DISL:MBLA:1,2019-01-11T13:55:00Z,30.4367,-88.0117,56.52,1111122 
DISL,ioos:station:DISL:MBLA:1,2019-01-11T14:55:00Z,30.4367,-88.0117,50.53,1111122 
DISL,ioos:station:DISL:MBLA:1,2019-01-11T15:55:00Z,30.4367,-88.0117,48.96,1111122 
DISL,ioos:station:DISL:MBLA:1,2019-01-11T16:55:00Z,30.4367,-88.0117,46.5,1111122 
DISL,ioos:station:DISL:MBLA:1,2019-01-11T17:55:00Z,30.4367,-88.0117,48.48,1111122 
DISL,ioos:station:DISL:MBLA:1,2019-01-11T18:55:00Z,30.4367,-88.0117,48.92,1111122 
DISL,ioos:station:DISL:MBLA:1,2019-01-11T19:55:00Z,30.4367,-88.0117,53.18,1111122 
DISL,ioos:station:DISL:MBLA:1,2019-01-11T20:55:00Z,30.4367,-88.0117,52.87,1111122 
DISL,ioos:station:DISL:MBLA:1,2019-01-11T21:55:00Z,30.4367,-88.0117,53.52,1111122 
DISL,ioos:station:DISL:MBLA:1,2019-01-11T22:55:00Z,30.4367,-88.0117,65.22,1111122 
DISL,ioos:station:DISL:MBLA:1,2019-01-11T23:55:00Z,30.4367,-88.0117,70.71,1111122 
DISL,ioos:station:DISL:MBLA:1,2019-01-12T00:55:00Z,30.4367,-88.0117,71.41,1111122 
DISL,ioos:station:DISL:MBLA:1,2019-01-12T01:55:00Z,30.4367,-88.0117,71.17,1111122 
DISL,ioos:station:DISL:MBLA:1,2019-01-12T02:55:00Z,30.4367,-88.0117,74.37,1111122 
DISL,ioos:station:DISL:MBLA:1,2019-01-12T03:55:00Z,30.4367,-88.0117,76.14,1111122 
DISL,ioos:station:DISL:MBLA:1,2019-01-12T04:55:00Z,30.4367,-88.0117,77.8,1111122 
DISL,ioos:station:DISL:MBLA:1,2019-01-12T05:55:00Z,30.4367,-88.0117,80.1,1111122 
DISL,ioos:station:DISL:MBLA:1,2019-01-12T06:55:00Z,30.4367,-88.0117,77.26,1111122 
DISL,ioos:station:DISL:MBLA:1,2019-01-12T07:55:00Z,30.4367,-88.0117,72.78,1111122 
DISL,ioos:station:DISL:MBLA:1,2019-01-12T08:55:00Z,30.4367,-88.0117,68.51,1111122 
DISL,ioos:station:DISL:MBLA:1,2019-01-12T09:55:00Z,30.4367,-88.0117,69.12,1111122 
DISL,ioos:station:DISL:MBLA:1,2019-01-12T10:55:00Z,30.4367,-88.0117,75.54,1111122 
DISL,ioos:station:DISL:MBLA:1,2019-01-12T11:55:00Z,30.4367,-88.0117,76.25,1111122 
DISL,ioos:station:DISL:MBLA:1,2019-01-12T12:55:00Z,30.4367,-88.0117,78.59,1111122 
DISL,ioos:station:DISL:MBLA:1,2019-01-12T13:55:00Z,30.4367,-88.0117,82.1,1111122 
DISL,ioos:station:DISL:MBLA:1,2019-01-12T14:55:00Z,30.4367,-88.0117,86.2,1111122 
DISL,ioos:station:DISL:MBLA:1,2019-01-12T15:55:00Z,30.4367,-88.0117,87.9,1111122 
DISL,ioos:station:DISL:MBLA:1,2019-01-12T16:55:00Z,30.4367,-88.0117,88.1,1111122 
DISL,ioos:station:DISL:MBLA:1,2019-01-12T17:55:00Z,30.4367,-88.0117,87.2,1111122 
DISL,ioos:station:DISL:MBLA:1,2019-01-12T18:55:00Z,30.4367,-88.0117,89.8,1111122 
DISL,ioos:station:DISL:MBLA:1,2019-01-12T19:55:00Z,30.4367,-88.0117,91.6,1111122 
DISL,ioos:station:DISL:MBLA:1,2019-01-12T20:55:00Z,30.4367,-88.0117,92.6,1111122 
DISL,ioos:station:DISL:MBLA:1,2019-01-12T21:55:00Z,30.4367,-88.0117,92.5,1111122 
DISL,ioos:station:DISL:MBLA:1,2019-01-12T22:55:00Z,30.4367,-88.0117,96.5,1111122 
DISL,ioos:station:DISL:MBLA:1,2019-01-12T23:56:00Z,30.4367,-88.0117,98.6,1111122 
DISL,ioos:station:DISL:MBLA:1,2019-01-13T00:55:00Z,30.4367,-88.0117,97.3,1111122 
DISL,ioos:station:DISL:MBLA:1,2019-01-13T01:55:00Z,30.4367,-88.0117,100.0,1111122 
DISL,ioos:station:DISL:MBLA:1,2019-01-13T02:55:00Z,30.4367,-88.0117,100.0,1111122 
DISL,ioos:station:DISL:MBLA:1,2019-01-13T03:55:00Z,30.4367,-88.0117,100.0,1111122 
DISL,ioos:station:DISL:MBLA:1,2019-01-13T04:55:00Z,30.4367,-88.0117,100.0,1111122 
DISL,ioos:station:DISL:MBLA:1,2019-01-13T05:56:00Z,30.4367,-88.0117,100.0,1111122 
DISL,ioos:station:DISL:MBLA:1,2019-01-13T06:56:00Z,30.4367,-88.0117,100.0,1111122 
DISL,ioos:station:DISL:MBLA:1,2019-01-13T07:55:00Z,30.4367,-88.0117,100.0,1111122 
DISL,ioos:station:DISL:MBLA:1,2019-01-13T08:55:00Z,30.4367,-88.0117,100.0,1111122 
DISL,ioos:station:DISL:MBLA:1,2019-01-13T09:55:00Z,30.4367,-88.0117,91.7,1111122 
DISL,ioos:station:DISL:MBLA:1,2019-01-13T10:55:00Z,30.4367,-88.0117,97.3,1111122 
DISL,ioos:station:DISL:MBLA:1,2019-01-13T11:55:00Z,30.4367,-88.0117,91.5,1111122 
DISL,ioos:station:DISL:MBLA:1,2019-01-13T12:56:00Z,30.4367,-88.0117,88.5,1111122 
DISL,ioos:station:DISL:MBLA:1,2019-01-13T13:56:00Z,30.4367,-88.0117,83.4,1111122 
DISL,ioos:station:DISL:MBLA:1,2019-01-13T14:56:00Z,30.4367,-88.0117,76.5,1111122 
DISL,ioos:station:DISL:MBLA:1,2019-01-13T15:56:00Z,30.4367,-88.0117,77.65,1111122 
DISL,ioos:station:DISL:MBLA:1,2019-01-13T16:56:00Z,30.4367,-88.0117,74.94,1111122 
DISL,ioos:station:DISL:MBLA:1,2019-01-13T17:55:00Z,30.4367,-88.0117,66.55,1111122 
DISL,ioos:station:DISL:MBLA:1,2019-01-13T18:56:00Z,30.4367,-88.0117,65.11,1111122 
DISL,ioos:station:DISL:MBLA:1,2019-01-13T19:56:00Z,30.4367,-88.0117,70.58,1111122 
DISL,ioos:station:DISL:MBLA:1,2019-01-13T20:56:00Z,30.4367,-88.0117,67.13,1111122 
DISL,ioos:station:DISL:MBLA:1,2019-01-13T21:56:00Z,30.4367,-88.0117,69.1,1111122 
DISL,ioos:station:DISL:MBLA:1,2019-01-13T22:56:00Z,30.4367,-88.0117,69.75,1111122 
DISL,ioos:station:DISL:MBLA:1,2019-01-13T23:56:00Z,30.4367,-88.0117,71.77,1111122 
DISL,ioos:station:DISL:MBLA:1,2019-01-14T00:56:00Z,30.4367,-88.0117,70.75,1111122 
DISL,ioos:station:DISL:MBLA:1,2019-01-14T01:56:00Z,30.4367,-88.0117,71.84,1111122 
DISL,ioos:station:DISL:MBLA:1,2019-01-14T02:56:00Z,30.4367,-88.0117,70.22,1111122 
DISL,ioos:station:DISL:MBLA:1,2019-01-14T03:56:00Z,30.4367,-88.0117,71.92,1111122 
DISL,ioos:station:DISL:MBLA:1,2019-01-14T04:56:00Z,30.4367,-88.0117,75.65,1111122 
DISL,ioos:station:DISL:MBLA:1,2019-01-14T05:56:00Z,30.4367,-88.0117,75.83,1111122 
DISL,ioos:station:DISL:MBLA:1,2019-01-14T06:56:00Z,30.4367,-88.0117,76.14,1111122 